Location: Valencia
(39.4696°N, 0.3770°W)
Time: 13:13:06
(UTC+02:00)

ISS - Visible Passes

Search period start: 26 May 2017 00:00
Search period end: 05 June 2017 00:00
Orbit: 402 x 408 km, 51.6° (Epoch: 26 May)

Date Brightness Start Highest point End Pass type
(mag) Time Alt. Az. Time Alt. Az. Time Alt. Az.
26 May -0.6 00:12:31 10° WNW 00:14:36 16° NNW 00:16:41 10° NNE visible
26 May -0.1 01:51:55 10° N 01:52:13 10° N 01:52:31 10° N visible
26 May -0.9 03:27:19 10° NNW 03:29:45 19° NNE 03:32:11 10° ENE visible
26 May -4.0 05:03:16 10° NW 05:06:32 73° SW 05:09:48 10° SE visible
26 May -3.8 21:42:22 10° SW 21:45:36 57° SE 21:48:52 10° ENE visible
26 May -1.0 23:19:43 10° WNW 23:22:19 21° NNW 23:24:55 10° NNE visible
27 May -0.1 00:59:16 10° NNW 00:59:48 10° N 01:00:20 10° N visible
27 May -0.5 02:35:34 10° NNW 02:37:26 14° NNE 02:39:18 10° NE visible
27 May -3.2 04:11:15 10° NW 04:14:30 57° NE 04:17:43 10° ESE visible
27 May -2.1 05:48:50 10° W 05:50:38 14° SW 05:52:27 10° SSW visible
27 May -1.8 22:27:05 10° W 22:30:06 32° NNW 22:33:06 10° NE visible
28 May -0.4 00:06:10 10° NNW 00:07:23 12° N 00:08:36 10° NNE visible
28 May -0.4 01:43:50 10° NNW 01:45:04 12° N 01:46:18 10° NNE visible
28 May -1.0 03:19:20 10° NW 03:19:56 14° NNW 03:19:56 14° NNW visible
28 May -0.6 23:13:08 10° NW 23:14:59 14° NNW 23:16:52 10° NNE visible
29 May -0.3 00:52:04 10° N 00:52:38 10° N 00:53:12 10° NNE visible
29 May -0.8 02:27:29 10° NNW 02:28:34 16° NNW 02:28:34 16° NNW visible
29 May -0.8 22:20:13 10° WNW 22:22:39 19° NNW 22:25:04 10° NNE visible
29 May -0.2 23:59:52 10° N 00:00:11 10° N 00:00:30 10° N visible
30 May -0.8 01:35:41 10° NNW 01:37:40 16° NNE 01:37:40 16° NNE visible
30 May -0.4 23:06:45 10° NNW 23:07:43 11° N 23:08:41 10° N visible
31 May -0.7 00:43:53 10° NNW 00:45:23 12° NNE 00:46:53 10° NE visible
31 May -0.5 02:19:28 10° NW 02:19:34 11° NW 02:19:34 11° NW visible
31 May -0.7 22:13:38 10° NW 22:15:17 13° NNW 22:16:54 10° NNE visible
31 May -0.5 23:52:07 10° N 23:52:56 11° N 23:53:45 10° NNE visible
01 Jun -1.0 01:27:33 10° NNW 01:28:57 19° NNW 01:28:57 19° NNW visible
01 Jun -0.4 23:00:10 10° N 23:00:27 10° N 23:00:43 10° N visible
02 Jun -1.2 00:35:42 10° NNW 00:38:01 17° NNE 00:38:23 17° NNE visible
02 Jun -0.5 22:07:13 10° NNW 22:07:57 11° N 22:08:40 10° N visible
02 Jun -0.9 23:43:52 10° NNW 23:45:36 13° NNE 23:47:20 10° NE visible
03 Jun -1.0 01:19:30 10° NW 01:20:29 18° NW 01:20:29 18° NW visible
03 Jun -0.8 22:52:03 10° N 22:53:07 11° N 22:54:12 10° NNE visible
04 Jun -1.9 00:27:31 10° NW 00:30:00 28° NNE 00:30:00 28° NNE visible
04 Jun -0.6 22:00:10 10° N 22:00:36 10° N 22:01:02 10° N visible
04 Jun -1.5 23:35:36 10° NNW 23:38:07 20° NNE 23:39:31 15° NE visible
